Location: Bluejay Creek
(37.7819°N, 119.6118°W)
Time: 11:28:41
(UTC+00:00)

Meteor 1-24 Rocket - Pass Details

Date: 05 August 2024
Orbit: 790 x 925 km, 81.3° (Epoch: 16 September)

Event Time Altitude Azimuth Distance (km) Brightness Sun altitude
Rises 12:27:39 0° 343° (NNW) 3,486 7.1 -7.7°
Reaches altitude 10° 12:30:10 10° 337° (NNW) 2,562 6.3 -7.2°
Maximum altitude 12:35:38 43° 268° (W) 1,260 4.2 -6.3°
Drops below altitude 10° 12:41:13 10° 199° (SSW) 2,606 5.8 -5.3°
Sets 12:43:49 0° 192° (SSW) 3,552 6.6 -4.8°
